Content
SEND FEEDBACK

Daily
Averages
Monthly
Summary
Mexico

COZUMEL, QUINTANA ROO


Home > North America > Mexico > Quintana Roo
Elevation: 15 feet     Latitude: 20 31N     Longitude: 086 56W

WEATHER
 
SELECT A DAY
Number of Records: 124,775;   Date Range: 1/1/95 - 8/10/14
 
SHARE

PRINT THIS DATA

[ ← Previous Day ]
WEATHER ALMANAC - MAY 4, 2014
[ Next Day → ]
[ °C ]   °F
Weather ElementAverageHighLow
Temperature75.9 °F80.6 °F (11:41 am)73.4 °F (1:55 am)
Dewpoint73.6 °F75.2 °F (7:48 am)71.6 °F (8:46 pm)
Humidity92.9 %100 % (1:55 am)79 % (12:40 pm)
Barometer30.03 in30.09 in (9:48 am)30.00 in (3:00 am)
Wind Speed9.8 mph18.4 mph (1:41 pm)
Weather ElementAverage
Visibility7.1 mi
Wind DirectionE (87.1 °)

Weather ElementTotal
Precipitation---
Cooling Degree Days12 (Base 65)
Growing Degree Days27 (Base 50)
Averaged from 24 records on May 4, 2014
WEATHER CONDITIONS BREAKOUT
WIND DIRECTION BREAKOUT
WEATHER BY HOUR - MAY 4, 2014
[ °C ]   °F
Local TimeTemperatureDewpointHumidityBarometerVisibilityWind DirectionWind SpeedGust SpeedPrecipitationEventsConditions
1:55 AM73.4 °F73.4 °F100 %30.02 in7.0 miNorth (360°)8.1 mphMostly Cloudy
3:00 AM73.4 °F73.4 °F100 %30.00 in7.0 miNorth (360°)6.9 mphMostly Cloudy
3:42 AM73.4 °F73.4 °F100 %30.04 in7.0 miENE (60°)5.8 mphMostly Cloudy
4:47 AM73.4 °F73.4 °F100 %30.01 in7.0 miNorth (10°)3.5 mphMostly Cloudy
5:40 AM73.4 °F73.4 °F100 %30.02 in7.0 miNorth (360°)5.8 mphMostly Cloudy
6:51 AM73.4 °F73.4 °F100 %30.00 in7.0 miNorth (10°)5.8 mphScattered Clouds
7:48 AM75.2 °F75.2 °F100 %30.05 in8.0 miNorth (10°)5.8 mphMostly Cloudy
8:41 AM77.0 °F75.2 °F94 %30.05 in8.0 miNorth (10°)8.1 mphMostly Cloudy
9:48 AM78.8 °F75.2 °F89 %30.09 in8.0 miNorth (360°)9.2 mphMostly Cloudy
10:40 AM78.8 °F73.4 °F83 %30.07 in8.0 miNNE (20°)6.9 mphMostly Cloudy
11:41 AM80.6 °F75.2 °F84 %30.05 in8.0 miNE (40°)17.3 mphScattered Clouds
12:40 PM80.6 °F73.4 °F79 %30.01 in8.0 miNNE (30°)13.8 mphScattered Clouds
1:41 PM80.6 °F73.4 °F79 %30.02 in8.0 miNNE (20°)18.4 mphScattered Clouds
2:44 PM78.8 °F73.4 °F83 %30.01 in8.0 miNNE (30°)16.1 mphMostly Cloudy
3:46 PM77.0 °F75.2 °F94 %30.02 in7.0 miNE (40°)13.8 mphMostly Cloudy
4:51 PM77.0 °F73.4 °F89 %30.00 in7.0 miNNE (20°)12.7 mphMostly Cloudy
5:19 PM73.4 °F73.4 °F100 %30.00 in4.0 miNorth (10°)13.8 mphRainRain
5:54 PM73.4 °F73.4 °F100 %30.01 in6.0 miNNE (20°)13.8 mphOvercast
6:56 PM73.4 °F73.4 °F100 %30.00 in7.0 miNE (40°)10.4 mphMostly Cloudy
7:44 PM75.2 °F73.4 °F94 %30.02 in6.0 miENE (60°)6.9 mphMostly Cloudy
8:46 PM75.2 °F71.6 °F89 %30.03 in6.0 miENE (60°)6.9 mphMostly Cloudy
9:47 PM75.2 °F73.4 °F94 %30.07 in7.0 miNE (50°)8.1 mphScattered Clouds
10:45 PM75.2 °F71.6 °F89 %30.06 in7.0 miNE (50°)8.1 mphScattered Clouds
11:43 PM75.2 °F71.6 °F89 %30.06 in7.0 miENE (60°)8.1 mphMostly Cloudy
Hourly data recorded from MMCZ, located miles away from Cozumel, Quintana Roo







STORIES FROM OUR PARTNERS